Location: Ch�tillon
(48.8024°N, 2.2935°E)
Time: 13:19:35
(UTC+00:00)

LO-87 - Pass Details

Date: 03 July 2022
Orbit: 451 x 466 km, 97.4° (Epoch: 08 August)

Event Time Altitude Azimuth Distance (km) Brightness Sun altitude
Exits shadow 22:24:04 16° 101° (E) 1,293 ? -15.5°
Maximum altitude 22:25:37 21° 66° (ENE) 1,095 ? -15.6°
Drops below altitude 10° 22:28:18 10° 15° (NNE) 1,628 ? -15.7°
Sets 22:30:41 0° 360° (N) 2,513 ? -15.9°
